TimeEST,TemperatureF,Dew PointF,Humidity,Sea Level PressureIn,VisibilityMPH,Wind Direction,Wind SpeedMPH,Gust SpeedMPH,PrecipitationIn,Events,Conditions,WindDirDegrees,DateUTC
1:54 AM,39.0,28.0,65,30.16,10.0,SW,6.9,-,N/A,,Clear,230,2013-01-20 06:54:00
2:54 AM,42.1,28.0,58,30.15,10.0,WSW,8.1,-,N/A,,Clear,240,2013-01-20 07:54:00
3:54 AM,42.1,28.0,58,30.14,10.0,WSW,6.9,-,N/A,,Clear,240,2013-01-20 08:54:00
4:54 AM,39.9,28.0,63,30.12,10.0,SW,10.4,-,N/A,,Clear,230,2013-01-20 09:54:00
5:54 AM,39.9,28.0,63,30.11,10.0,SW,12.7,-,N/A,,Clear,230,2013-01-20 10:54:00
6:54 AM,39.9,27.0,60,30.12,10.0,WSW,3.5,-,N/A,,Clear,250,2013-01-20 11:54:00
7:54 AM,39.0,28.0,65,30.14,10.0,West,3.5,-,N/A,,Clear,270,2013-01-20 12:54:00
8:54 AM,43.0,28.9,58,30.15,10.0,West,5.8,-,N/A,,Clear,270,2013-01-20 13:54:00
9:54 AM,46.9,28.9,50,30.14,10.0,WSW,6.9,-,N/A,,Clear,240,2013-01-20 14:54:00
10:54 AM,52.0,30.0,43,30.15,10.0,Variable,3.5,-,N/A,,Clear,0,2013-01-20 15:54:00
11:54 AM,57.0,32.0,39,30.11,10.0,West,9.2,-,N/A,,Clear,280,2013-01-20 16:54:00
1:54 PM,63.0,32.0,31,30.05,10.0,West,11.5,-,N/A,,Clear,270,2013-01-20 18:54:00
2:54 PM,64.0,30.9,29,30.03,10.0,WSW,8.1,-,N/A,,Clear,240,2013-01-20 19:54:00
3:54 PM,63.0,30.9,30,30.02,10.0,WSW,11.5,-,N/A,,Clear,240,2013-01-20 20:54:00
4:54 PM,62.1,30.9,31,30.03,10.0,WSW,8.1,-,N/A,,Clear,250,2013-01-20 21:54:00
5:54 PM,55.0,32.0,42,30.06,10.0,WSW,5.8,-,N/A,,Clear,240,2013-01-20 22:54:00
6:54 PM,48.0,33.1,56,30.07,10.0,Calm,Calm,-,N/A,,Clear,0,2013-01-20 23:54:00
7:54 PM,44.1,33.1,65,30.08,10.0,WNW,3.5,-,N/A,,Clear,290,2013-01-21 00:54:00
8:54 PM,43.0,33.1,68,30.10,10.0,North,3.5,-,N/A,,Clear,10,2013-01-21 01:54:00
9:54 PM,41.0,32.0,70,30.11,10.0,Calm,Calm,-,N/A,,Clear,0,2013-01-21 02:54:00
10:54 PM,41.0,30.0,65,30.11,10.0,Calm,Calm,-,N/A,,Clear,0,2013-01-21 03:54:00
11:54 PM,36.0,28.9,76,30.10,10.0,Calm,Calm,-,N/A,,Clear,0,2013-01-21 04:54:00